Date String (YYYY-MM-DD hh:mm:ss) UTC,Instrument flags,Ambient pressure (hPa),Sample flow (lpm),Bypass flow (lpm),Sample temperature (°C),Ambient temperature (°C),ASC tube jacket temperature (°C),LED temperature (°C),Box temperature (°C),Sample RH (%),Span deviation,Mass concentration (μg/m³),Mass concentration (μg/m³),Mass concentration (μg/m³)
DateTimeUTC,F1_M11,P_M11,Q1_M11,Q2_M11,T1_M11,T2_M11,T3_M11,T4_M11,T5_M11,U1_M11,ZSPAN_M11,X0_M11,X2_M11,X1_M11
2022-11-15 22:00:00,,0831.1,5.00,0.00,21.4,19.9,00.0,30.3,23.1,10.6,0000.0,0007.42,0004.57,0004.43
2022-11-15 22:01:00,,0831.2,5.00,0.00,21.4,19.8,00.0,30.3,23.1,10.7,0000.0,0007.40,0004.57,0004.43
2022-11-15 22:02:00,,0831.2,5.00,0.00,21.3,19.9,00.0,30.3,23.1,10.8,0000.0,0007.44,0004.58,0004.43
2022-11-15 22:03:00,,0831.2,5.01,0.00,21.3,19.9,00.0,30.3,23.1,10.7,0000.0,0007.50,0004.59,0004.43
2022-11-15 22:04:00,,0831.2,5.00,0.00,21.3,19.8,00.0,30.3,23.1,10.6,0000.0,0007.56,0004.62,0004.44
2022-11-15 22:05:00,,0831.2,5.00,0.00,21.3,19.8,00.0,30.3,23.1,10.7,0000.0,0007.59,0004.64,0004.45
2022-11-15 22:06:00,,0831.2,5.00,0.00,21.3,19.8,00.0,30.3,23.1,10.4,0000.0,0007.54,0004.65,0004.46
2022-11-15 22:07:00,,0831.1,5.00,0.00,21.3,19.7,00.0,30.3,23.1,10.5,0000.0,0007.54,0004.66,0004.47
2022-11-15 22:08:00,,0831.2,5.00,0.00,21.3,19.7,00.0,30.3,23.1,10.4,0000.0,0007.63,0004.69,0004.47
2022-11-15 22:09:00,,0831.2,5.00,0.00,21.3,19.7,00.0,30.3,23.0,10.2,0000.0,0007.64,0004.68,0004.46
2022-11-15 22:10:00,,0831.2,4.99,0.00,21.3,19.7,00.0,30.3,23.0,10.5,0000.0,0006.87,0004.65,0004.43
2022-11-15 22:11:00,,0831.2,5.01,0.00,21.3,20.2,00.0,30.2,23.1,10.6,0000.0,0006.46,0004.63,0004.40
2022-11-15 22:12:00,,0831.2,5.00,0.00,21.4,21.2,00.0,30.2,23.3,10.6,0000.0,0006.43,0004.61,0004.36
2022-11-15 22:13:00,,0831.2,4.98,0.00,21.5,21.6,00.0,30.2,23.5,10.5,0000.0,0006.39,0004.57,0004.32
2022-11-15 22:14:00,,0831.2,5.00,0.00,21.5,21.3,00.0,30.3,23.5,10.6,0000.0,0006.35,0004.54,0004.29
2022-11-15 22:15:00,,0831.2,5.00,0.00,21.5,20.9,00.0,30.3,23.4,10.3,0000.0,0006.32,0004.52,0004.26
2022-11-15 22:16:00,,0831.2,5.00,0.00,21.5,20.5,00.0,30.3,23.3,10.1,0000.0,0006.29,0004.50,0004.25
2022-11-15 22:17:00,,0831.1,5.00,0.00,21.5,20.3,00.0,30.4,23.2,10.0,0000.0,0006.33,0004.50,0004.24
2022-11-15 22:18:00,,0831.2,5.01,0.00,21.4,20.2,00.0,30.4,23.2,10.1,0000.0,0006.40,0004.51,0004.23
2022-11-15 22:19:00,,0831.2,5.01,0.00,21.4,20.1,00.0,30.4,23.2,10.2,0000.0,0006.43,0004.51,0004.22
2022-11-15 22:20:00,,0831.2,5.00,0.00,21.4,20.0,00.0,30.4,23.2,10.2,0000.0,0006.38,0004.50,0004.21
2022-11-15 22:21:00,,0831.2,5.00,0.00,21.4,20.0,00.0,30.4,23.1,10.5,0000.0,0006.37,0004.50,0004.20
2022-11-15 22:22:00,,0831.3,5.00,0.00,21.4,19.9,00.0,30.4,23.1,10.5,0000.0,0006.46,0004.51,0004.20
2022-11-15 22:23:00,,0831.4,5.00,0.00,21.4,19.8,00.0,30.4,23.1,10.5,0000.0,0006.45,0004.51,0004.20
2022-11-15 22:24:00,,0831.4,4.99,0.00,21.3,19.8,00.0,30.3,23.1,10.2,0000.0,0006.39,0004.50,0004.21
2022-11-15 22:25:00,,0831.3,4.99,0.00,21.3,19.7,00.0,30.3,23.1,10.0,0000.0,0006.35,0004.50,0004.21
2022-11-15 22:26:00,,0831.3,5.00,0.00,21.3,19.7,00.0,30.3,23.1,10.2,0000.0,0006.23,0004.48,0004.21
2022-11-15 22:27:00,,0831.3,5.00,0.00,21.3,19.7,00.0,30.3,23.1,10.1,0000.0,0006.17,0004.46,0004.21
2022-11-15 22:28:00,,0831.3,5.00,0.00,21.3,19.8,00.0,30.3,23.1,10.1,0000.0,0006.07,0004.43,0004.19
2022-11-15 22:29:00,,0831.2,5.00,0.00,21.3,19.8,00.0,30.3,23.1,10.0,0000.0,0006.01,0004.42,0004.19
2022-11-15 22:30:00,,0831.3,5.00,0.00,21.3,19.8,00.0,30.3,23.1,10.1,0000.0,0005.99,0004.41,0004.19
2022-11-15 22:31:00,,0831.2,5.00,0.00,21.3,19.8,00.0,30.3,23.0,10.1,0000.0,0006.10,0004.44,0004.20
2022-11-15 22:32:00,,0831.2,5.00,0.00,21.3,19.7,00.0,30.3,23.0,10.3,0000.0,0006.08,0004.44,0004.20
2022-11-15 22:33:00,,0831.2,5.00,0.00,21.3,19.7,00.0,30.3,23.0,10.4,0000.0,0006.00,0004.43,0004.21
2022-11-15 22:34:00,,0831.2,5.00,0.00,21.3,19.8,00.0,30.3,23.1,10.5,0000.0,0006.16,0004.44,0004.22
2022-11-15 22:35:00,,0831.2,5.00,0.00,21.3,19.8,00.0,30.3,23.1,10.4,0000.0,0006.63,0004.49,0004.20
2022-11-15 22:36:00,,0831.3,5.00,0.00,21.3,19.9,00.0,30.3,23.1,10.4,0000.0,0006.60,0004.48,0004.18
2022-11-15 22:37:00,,0831.4,5.00,0.00,21.3,19.8,00.0,30.3,23.0,09.9,0000.0,0006.64,0004.48,0004.17
2022-11-15 22:38:00,,0831.3,4.99,0.00,21.3,19.7,00.0,30.3,23.0,09.9,0000.0,0006.74,0004.49,0004.16
2022-11-15 22:39:00,,0831.2,5.01,0.00,21.2,19.7,00.0,30.2,23.0,09.9,0000.0,0006.84,0004.47,0004.15
2022-11-15 22:40:00,,0831.3,5.01,0.00,21.3,19.8,00.0,30.2,23.0,10.1,0000.0,0007.78,0004.48,0004.14
2022-11-15 22:41:00,,0831.3,4.99,0.00,21.2,19.8,00.0,30.2,23.1,10.2,0000.0,0007.82,0004.46,0004.13
2022-11-15 22:42:00,,0831.3,4.98,0.00,21.3,19.8,00.0,30.2,23.0,10.0,0000.0,0008.39,0004.47,0004.12
2022-11-15 22:43:00,,0831.4,5.00,0.00,21.2,19.7,00.0,30.2,23.0,10.2,0000.0,0009.34,0004.52,0004.10
2022-11-15 22:44:00,,0831.3,5.01,0.00,21.2,19.6,00.0,30.2,23.0,10.3,0000.0,0009.31,0004.49,0004.07
2022-11-15 22:45:00,,0831.4,5.01,0.00,21.2,19.6,00.0,30.2,22.9,10.4,0000.0,0009.18,0004.45,0004.05
2022-11-15 22:46:00,,0831.3,5.00,0.00,21.2,19.5,00.0,30.2,22.9,09.9,0000.0,0008.90,0004.37,0004.04
2022-11-15 22:47:00,,0831.4,5.00,0.00,21.2,19.7,00.0,30.2,23.0,10.1,0000.0,0008.86,0004.35,0004.03
2022-11-15 22:48:00,,0831.4,5.00,0.00,21.3,20.8,00.0,30.1,23.2,10.1,0000.0,0009.09,0004.32,0004.01
2022-11-15 22:49:00,,0831.4,5.00,0.00,21.4,21.5,00.0,30.1,23.4,10.2,0000.0,0009.15,0004.29,0003.99
2022-11-15 22:50:00,,0831.4,4.99,0.00,21.4,21.3,00.0,30.2,23.4,10.0,0000.0,0009.36,0004.30,0003.98
2022-11-15 22:51:00,,0831.4,4.99,0.00,21.4,20.8,00.0,30.2,23.3,09.9,0000.0,0008.74,0004.29,0003.98
2022-11-15 22:52:00,,0831.4,5.00,0.00,21.4,20.4,00.0,30.3,23.2,09.8,0000.0,0008.67,0004.28,0003.97
2022-11-15 22:53:00,,0831.4,5.00,0.00,21.4,20.2,00.0,30.3,23.2,09.8,0000.0,0008.15,0004.23,0003.96
2022-11-15 22:54:00,,0831.4,5.01,0.00,21.4,20.0,00.0,30.3,23.1,10.0,0000.0,0007.79,0004.17,0003.97
2022-11-15 22:55:00,,0831.4,5.01,0.00,21.3,19.8,00.0,30.3,23.1,09.8,0000.0,0007.91,0004.22,0003.98
2022-11-15 22:56:00,,0831.3,5.00,0.00,21.3,19.7,00.0,30.3,23.0,09.9,0000.0,0007.91,0004.23,0003.99
2022-11-15 22:57:00,,0831.4,4.99,0.00,21.3,19.7,00.0,30.3,23.0,10.0,0000.0,0007.99,0004.25,0004.00
2022-11-15 22:58:00,,0831.4,4.99,0.00,21.3,19.6,00.0,30.3,23.0,09.8,0000.0,0008.00,0004.26,0004.01
2022-11-15 22:59:00,,0831.4,5.00,0.00,21.2,19.5,00.0,30.3,22.9,09.9,0000.0,0007.80,0004.29,0004.02
